iso_date,Year,Hour,Min,DOY,POS_DOY,Lat,Lon,BP,Ts,Ta,has_bp,has_ts,has_ta,BuoyID,Buoy_Type,Buoy_Owner,Logistics,Hemisphere
2021-11-23T16:00:02Z,2021,16,0,327.6667,327.6667,68.845,-65.943,1016.9,-1.7,-999.0,yes,yes,no,300234066215540,BD2GI,AOML,CANADIAN_COAST_GU,North
2021-11-23T16:59:57Z,2021,17,0,327.7083,327.7083,68.854,-65.925,1015.7,-1.68,-999.0,yes,yes,no,300234066215540,BD2GI,AOML,CANADIAN_COAST_GU,North
2021-11-23T18:00:00Z,2021,18,0,327.75,327.75,68.86,-65.902,1014.1,-1.72,-999.0,yes,yes,no,300234066215540,BD2GI,AOML,CANADIAN_COAST_GU,North
2021-11-23T19:00:02Z,2021,19,0,327.7917,327.7917,68.863,-65.883,1011.5,-1.71,-999.0,yes,yes,no,300234066215540,BD2GI,AOML,CANADIAN_COAST_GU,North
2021-11-23T19:59:57Z,2021,20,0,327.8333,327.8333,68.863,-65.855,1009.4,-1.73,-999.0,yes,yes,no,300234066215540,BD2GI,AOML,CANADIAN_COAST_GU,North
2021-11-23T21:00:00Z,2021,21,0,327.875,327.875,68.862,-65.841,1008.1,-1.73,-999.0,yes,yes,no,300234066215540,BD2GI,AOML,CANADIAN_COAST_GU,North
2021-11-23T22:00:02Z,2021,22,0,327.9167,327.9167,68.86,-65.842,1003.9,-1.76,-999.0,yes,yes,no,300234066215540,BD2GI,AOML,CANADIAN_COAST_GU,North
2021-11-23T22:59:57Z,2021,23,0,327.9583,327.9583,68.857,-65.858,1002.6,-1.76,-999.0,yes,yes,no,300234066215540,BD2GI,AOML,CANADIAN_COAST_GU,North
2021-11-24T00:00:00Z,2021,0,0,328.0,328.0,68.855,-65.88,998.9,-1.76,-999.0,yes,yes,no,300234066215540,BD2GI,AOML,CANADIAN_COAST_GU,North
2021-11-24T01:00:02Z,2021,1,0,328.0417,328.0417,68.853,-65.913,997.8,-1.76,-999.0,yes,yes,no,300234066215540,BD2GI,AOML,CANADIAN_COAST_GU,North
2021-11-24T01:59:57Z,2021,2,0,328.0833,328.0833,68.85,-65.946,995.7,-1.74,-999.0,yes,yes,no,300234066215540,BD2GI,AOML,CANADIAN_COAST_GU,North
2021-11-24T03:00:00Z,2021,3,0,328.125,328.125,68.846,-65.981,993.2,-1.75,-999.0,yes,yes,no,300234066215540,BD2GI,AOML,CANADIAN_COAST_GU,North
2021-11-24T04:00:02Z,2021,4,0,328.1667,328.1667,68.839,-66.014,991.0,-1.75,-999.0,yes,yes,no,300234066215540,BD2GI,AOML,CANADIAN_COAST_GU,North
2021-11-24T04:59:57Z,2021,5,0,328.2083,328.2083,68.828,-66.04,989.3,-1.76,-999.0,yes,yes,no,300234066215540,BD2GI,AOML,CANADIAN_COAST_GU,North
2021-11-24T06:00:00Z,2021,6,0,328.25,328.25,68.813,-66.054,987.7,-1.77,-999.0,yes,yes,no,300234066215540,BD2GI,AOML,CANADIAN_COAST_GU,North
2021-11-24T07:00:02Z,2021,7,0,328.2917,328.2917,68.797,-66.034,987.8,-1.8,-999.0,yes,yes,no,300234066215540,BD2GI,AOML,CANADIAN_COAST_GU,North
2021-11-24T07:59:57Z,2021,8,0,328.3333,328.3333,68.782,-65.986,989.1,-1.74,-999.0,yes,yes,no,300234066215540,BD2GI,AOML,CANADIAN_COAST_GU,North
2021-11-24T09:00:00Z,2021,9,0,328.375,328.375,68.767,-65.918,990.6,-1.74,-999.0,yes,yes,no,300234066215540,BD2GI,AOML,CANADIAN_COAST_GU,North
2021-11-24T10:00:02Z,2021,10,0,328.4167,328.4167,68.743,-65.853,993.6,-1.76,-999.0,yes,yes,no,300234066215540,BD2GI,AOML,CANADIAN_COAST_GU,North
2021-11-24T10:59:57Z,2021,11,0,328.4583,328.4583,68.718,-65.8,996.0,-1.84,-999.0,yes,yes,no,300234066215540,BD2GI,AOML,CANADIAN_COAST_GU,North
2021-11-24T12:00:00Z,2021,12,0,328.5,328.5,68.693,-65.755,998.0,-1.77,-999.0,yes,yes,no,300234066215540,BD2GI,AOML,CANADIAN_COAST_GU,North
2021-11-24T13:00:02Z,2021,13,0,328.5417,328.5417,68.665,-65.73,999.6,-1.78,-999.0,yes,yes,no,300234066215540,BD2GI,AOML,CANADIAN_COAST_GU,North
2021-11-24T13:59:57Z,2021,14,0,328.5833,328.5833,68.641,-65.727,1002.2,-1.71,-999.0,yes,yes,no,300234066215540,BD2GI,AOML,CANADIAN_COAST_GU,North
2021-11-24T15:00:00Z,2021,15,0,328.625,328.625,68.624,-65.74,1004.9,-1.74,-999.0,yes,yes,no,300234066215540,BD2GI,AOML,CANADIAN_COAST_GU,North
2021-11-24T16:00:02Z,2021,16,0,328.6667,328.6667,68.613,-65.762,1006.1,-1.75,-999.0,yes,yes,no,300234066215540,BD2GI,AOML,CANADIAN_COAST_GU,North
2021-11-24T16:59:57Z,2021,17,0,328.7083,328.7083,68.606,-65.79,1007.4,-1.76,-999.0,yes,yes,no,300234066215540,BD2GI,AOML,CANADIAN_COAST_GU,North
2021-11-24T18:00:00Z,2021,18,0,328.75,328.75,68.602,-65.815,1008.3,-1.72,-999.0,yes,yes,no,300234066215540,BD2GI,AOML,CANADIAN_COAST_GU,North
2021-11-24T19:00:02Z,2021,19,0,328.7917,328.7917,68.604,-65.831,1009.7,-1.69,-999.0,yes,yes,no,300234066215540,BD2GI,AOML,CANADIAN_COAST_GU,North
2021-11-24T19:59:57Z,2021,20,0,328.8333,328.8333,68.606,-65.831,1010.6,-1.7,-999.0,yes,yes,no,300234066215540,BD2GI,AOML,CANADIAN_COAST_GU,North
2021-11-24T21:00:00Z,2021,21,0,328.875,328.875,68.608,-65.807,1011.8,-1.7,-999.0,yes,yes,no,300234066215540,BD2GI,AOML,CANADIAN_COAST_GU,North
2021-11-24T22:00:02Z,2021,22,0,328.9167,328.9167,68.609,-65.772,1012.8,-1.7,-999.0,yes,yes,no,300234066215540,BD2GI,AOML,CANADIAN_COAST_GU,North
2021-11-24T22:59:57Z,2021,23,0,328.9583,328.9583,68.606,-65.737,1013.2,-1.67,-999.0,yes,yes,no,300234066215540,BD2GI,AOML,CANADIAN_COAST_GU,North
2021-11-25T00:00:00Z,2021,0,0,329.0,329.0,68.598,-65.711,1013.8,-1.68,-999.0,yes,yes,no,300234066215540,BD2GI,AOML,CANADIAN_COAST_GU,North
2021-11-25T01:00:02Z,2021,1,0,329.0417,329.0417,68.589,-65.702,1014.6,-1.66,-999.0,yes,yes,no,300234066215540,BD2GI,AOML,CANADIAN_COAST_GU,North
2021-11-25T01:59:57Z,2021,2,0,329.0833,329.0833,68.584,-65.71,1015.2,-1.65,-999.0,yes,yes,no,300234066215540,BD2GI,AOML,CANADIAN_COAST_GU,North
2021-11-25T03:00:00Z,2021,3,0,329.125,329.125,68.582,-65.728,1015.1,-1.78,-999.0,yes,yes,no,300234066215540,BD2GI,AOML,CANADIAN_COAST_GU,North
2021-11-25T04:00:02Z,2021,4,0,329.1667,329.1667,68.583,-65.757,1015.6,-1.7,-999.0,yes,yes,no,300234066215540,BD2GI,AOML,CANADIAN_COAST_GU,North
2021-11-25T04:59:57Z,2021,5,0,329.2083,329.2083,68.587,-65.794,1015.6,-1.76,-999.0,yes,yes,no,300234066215540,BD2GI,AOML,CANADIAN_COAST_GU,North
2021-11-25T06:00:00Z,2021,6,0,329.25,329.25,68.593,-65.832,1016.2,-1.75,-999.0,yes,yes,no,300234066215540,BD2GI,AOML,CANADIAN_COAST_GU,North
2021-11-25T07:00:02Z,2021,7,0,329.2917,329.2917,68.601,-65.868,1016.2,-1.71,-999.0,yes,yes,no,300234066215540,BD2GI,AOML,CANADIAN_COAST_GU,North
2021-11-25T07:59:57Z,2021,8,0,329.3333,329.3333,68.613,-65.902,1016.0,-1.74,-999.0,yes,yes,no,300234066215540,BD2GI,AOML,CANADIAN_COAST_GU,North
2021-11-25T09:00:00Z,2021,9,0,329.375,329.375,68.625,-65.924,1016.1,-1.79,-999.0,yes,yes,no,300234066215540,BD2GI,AOML,CANADIAN_COAST_GU,North
2021-11-25T10:00:02Z,2021,10,0,329.4167,329.4167,68.638,-65.931,1015.9,-1.93,-999.0,yes,yes,no,300234066215540,BD2GI,AOML,CANADIAN_COAST_GU,North
2021-11-25T10:59:57Z,2021,11,0,329.4583,329.4583,68.646,-65.92,1015.5,-1.82,-999.0,yes,yes,no,300234066215540,BD2GI,AOML,CANADIAN_COAST_GU,North
2021-11-25T12:00:00Z,2021,12,0,329.5,329.5,68.646,-65.896,1015.4,-1.73,-999.0,yes,yes,no,300234066215540,BD2GI,AOML,CANADIAN_COAST_GU,North
2021-11-25T13:00:02Z,2021,13,0,329.5417,329.5417,68.645,-65.885,1012.8,-1.89,-999.0,yes,yes,no,300234066215540,BD2GI,AOML,CANADIAN_COAST_GU,North
2021-11-25T13:59:57Z,2021,14,0,329.5833,329.5833,68.641,-65.88,1009.2,-1.88,-999.0,yes,yes,no,300234066215540,BD2GI,AOML,CANADIAN_COAST_GU,North
2021-11-25T15:00:00Z,2021,15,0,329.625,329.625,68.639,-65.885,1014.8,-2.34,-999.0,yes,yes,no,300234066215540,BD2GI,AOML,CANADIAN_COAST_GU,North
2021-11-25T18:00:00Z,2021,18,0,329.75,329.75,68.638,-65.921,1011.6,-2.22,-999.0,yes,yes,no,300234066215540,BD2GI,AOML,CANADIAN_COAST_GU,North
2021-11-25T19:00:02Z,2021,19,0,329.7917,329.7917,68.642,-65.922,1008.6,-1.85,-999.0,yes,yes,no,300234066215540,BD2GI,AOML,CANADIAN_COAST_GU,North
2021-11-25T19:59:57Z,2021,20,0,329.8333,329.8333,68.648,-65.908,1007.4,-1.87,-999.0,yes,yes,no,300234066215540,BD2GI,AOML,CANADIAN_COAST_GU,North
2021-11-25T21:00:00Z,2021,21,0,329.875,329.875,68.651,-65.884,1014.7,-1.69,-999.0,yes,yes,no,300234066215540,BD2GI,AOML,CANADIAN_COAST_GU,North
2021-11-25T22:00:02Z,2021,22,0,329.9167,329.9167,68.651,-65.863,1014.7,-1.71,-999.0,yes,yes,no,300234066215540,BD2GI,AOML,CANADIAN_COAST_GU,North
2021-11-25T22:59:57Z,2021,23,0,329.9583,329.9583,68.648,-65.844,1014.6,-1.64,-999.0,yes,yes,no,300234066215540,BD2GI,AOML,CANADIAN_COAST_GU,North
2021-11-26T00:00:00Z,2021,0,0,330.0,330.0,68.644,-65.825,1014.0,-1.65,-999.0,yes,yes,no,300234066215540,BD2GI,AOML,CANADIAN_COAST_GU,North
2021-11-26T01:00:02Z,2021,1,0,330.0417,330.0417,68.639,-65.805,1013.7,-1.75,-999.0,yes,yes,no,300234066215540,BD2GI,AOML,CANADIAN_COAST_GU,North
2021-11-26T01:59:57Z,2021,2,0,330.0833,330.0833,68.634,-65.791,1013.7,-1.75,-999.0,yes,yes,no,300234066215540,BD2GI,AOML,CANADIAN_COAST_GU,North
2021-11-26T03:00:00Z,2021,3,0,330.125,330.125,68.63,-65.781,1013.5,-1.77,-999.0,yes,yes,no,300234066215540,BD2GI,AOML,CANADIAN_COAST_GU,North
2021-11-26T04:00:02Z,2021,4,0,330.1667,330.1667,68.627,-65.786,1013.1,-1.77,-999.0,yes,yes,no,300234066215540,BD2GI,AOML,CANADIAN_COAST_GU,North
2021-11-26T04:59:57Z,2021,5,0,330.2083,330.2083,68.627,-65.8,1012.7,-1.74,-999.0,yes,yes,no,300234066215540,BD2GI,AOML,CANADIAN_COAST_GU,North
2021-11-26T06:00:00Z,2021,6,0,330.25,330.25,68.632,-65.818,1012.7,-1.72,-999.0,yes,yes,no,300234066215540,BD2GI,AOML,CANADIAN_COAST_GU,North
2021-11-26T07:00:02Z,2021,7,0,330.2917,330.2917,68.641,-65.833,1012.6,-1.72,-999.0,yes,yes,no,300234066215540,BD2GI,AOML,CANADIAN_COAST_GU,North
2021-11-26T07:59:57Z,2021,8,0,330.3333,330.3333,68.653,-65.834,1012.7,-1.71,-999.0,yes,yes,no,300234066215540,BD2GI,AOML,CANADIAN_COAST_GU,North
2021-11-26T09:00:00Z,2021,9,0,330.375,330.375,68.666,-65.819,1012.8,-1.66,-999.0,yes,yes,no,300234066215540,BD2GI,AOML,CANADIAN_COAST_GU,North
2021-11-26T10:00:02Z,2021,10,0,330.4167,330.4167,68.679,-65.788,1013.0,-1.74,-999.0,yes,yes,no,300234066215540,BD2GI,AOML,CANADIAN_COAST_GU,North
2021-11-26T10:59:57Z,2021,11,0,330.4583,330.4583,68.689,-65.743,1013.0,-1.73,-999.0,yes,yes,no,300234066215540,BD2GI,AOML,CANADIAN_COAST_GU,North
2021-11-26T12:00:00Z,2021,12,0,330.5,330.5,68.696,-65.689,1013.0,-1.66,-999.0,yes,yes,no,300234066215540,BD2GI,AOML,CANADIAN_COAST_GU,North
2021-11-26T13:00:02Z,2021,13,0,330.5417,330.5417,68.697,-65.634,1012.9,-1.65,-999.0,yes,yes,no,300234066215540,BD2GI,AOML,CANADIAN_COAST_GU,North
2021-11-26T13:59:57Z,2021,14,0,330.5833,330.5833,68.697,-65.583,1012.9,-1.66,-999.0,yes,yes,no,300234066215540,BD2GI,AOML,CANADIAN_COAST_GU,North
2021-11-26T15:00:00Z,2021,15,0,330.625,330.625,68.696,-65.541,1012.9,-1.7,-999.0,yes,yes,no,300234066215540,BD2GI,AOML,CANADIAN_COAST_GU,North
2021-11-26T16:00:02Z,2021,16,0,330.6667,330.6667,68.691,-65.514,1013.3,-1.67,-999.0,yes,yes,no,300234066215540,BD2GI,AOML,CANADIAN_COAST_GU,North
2021-11-26T16:59:57Z,2021,17,0,330.7083,330.7083,68.686,-65.497,1013.7,-1.68,-999.0,yes,yes,no,300234066215540,BD2GI,AOML,CANADIAN_COAST_GU,North
2021-11-26T18:00:00Z,2021,18,0,330.75,330.75,68.683,-65.492,1011.8,-1.69,-999.0,yes,yes,no,300234066215540,BD2GI,AOML,CANADIAN_COAST_GU,North
2021-11-26T19:00:02Z,2021,19,0,330.7917,330.7917,68.681,-65.49,1016.2,-1.74,-999.0,yes,yes,no,300234066215540,BD2GI,AOML,CANADIAN_COAST_GU,North
2021-11-26T19:59:57Z,2021,20,0,330.8333,330.8333,68.682,-65.485,1015.8,-1.71,-999.0,yes,yes,no,300234066215540,BD2GI,AOML,CANADIAN_COAST_GU,North
2021-11-26T21:00:00Z,2021,21,0,330.875,330.875,68.684,-65.464,1016.4,-1.71,-999.0,yes,yes,no,300234066215540,BD2GI,AOML,CANADIAN_COAST_GU,North
2021-11-26T22:00:02Z,2021,22,0,330.9167,330.9167,68.682,-65.44,1018.7,-1.72,-999.0,yes,yes,no,300234066215540,BD2GI,AOML,CANADIAN_COAST_GU,North
2021-11-26T22:59:57Z,2021,23,0,330.9583,330.9583,68.676,-65.413,1020.0,-1.73,-999.0,yes,yes,no,300234066215540,BD2GI,AOML,CANADIAN_COAST_GU,North
2021-11-27T00:00:00Z,2021,0,0,331.0,331.0,68.668,-65.396,1019.1,-1.72,-999.0,yes,yes,no,300234066215540,BD2GI,AOML,CANADIAN_COAST_GU,North
2021-11-27T01:00:02Z,2021,1,0,331.0417,331.0417,68.659,-65.376,1020.0,-1.71,-999.0,yes,yes,no,300234066215540,BD2GI,AOML,CANADIAN_COAST_GU,North
2021-11-27T01:59:57Z,2021,2,0,331.0833,331.0833,68.653,-65.362,1019.7,-1.72,-999.0,yes,yes,no,300234066215540,BD2GI,AOML,CANADIAN_COAST_GU,North
2021-11-27T03:00:00Z,2021,3,0,331.125,331.125,68.642,-65.341,1019.3,-1.8,-999.0,yes,yes,no,300234066215540,BD2GI,AOML,CANADIAN_COAST_GU,North
2021-11-27T04:00:02Z,2021,4,0,331.1667,331.1667,68.638,-65.346,1019.5,-1.77,-999.0,yes,yes,no,300234066215540,BD2GI,AOML,CANADIAN_COAST_GU,North
2021-11-27T04:59:57Z,2021,5,0,331.2083,331.2083,68.635,-65.349,1019.5,-1.81,-999.0,yes,yes,no,300234066215540,BD2GI,AOML,CANADIAN_COAST_GU,North
2021-11-27T06:00:00Z,2021,6,0,331.25,331.25,68.63,-65.357,1019.2,-1.79,-999.0,yes,yes,no,300234066215540,BD2GI,AOML,CANADIAN_COAST_GU,North
2021-11-27T07:00:02Z,2021,7,0,331.2917,331.2917,68.63,-65.36,1018.1,-1.75,-999.0,yes,yes,no,300234066215540,BD2GI,AOML,CANADIAN_COAST_GU,North
2021-11-27T07:59:57Z,2021,8,0,331.3333,331.3333,68.634,-65.367,1017.4,-1.76,-999.0,yes,yes,no,300234066215540,BD2GI,AOML,CANADIAN_COAST_GU,North
2021-11-27T10:00:02Z,2021,10,0,331.4167,331.4167,68.639,-65.356,1015.6,-1.84,-999.0,yes,yes,no,300234066215540,BD2GI,AOML,CANADIAN_COAST_GU,North
2021-11-27T12:00:00Z,2021,12,0,331.5,331.5,68.639,-65.325,1018.4,-1.89,-999.0,yes,yes,no,300234066215540,BD2GI,AOML,CANADIAN_COAST_GU,North
2021-11-27T16:00:02Z,2021,16,0,331.6667,331.6667,68.602,-65.314,1006.4,35.95,-999.0,yes,yes,no,300234066215540,BD2GI,AOML,CANADIAN_COAST_GU,North
2021-11-27T16:59:57Z,2021,17,0,331.7083,331.7083,68.591,-65.327,1005.4,35.95,-999.0,yes,yes,no,300234066215540,BD2GI,AOML,CANADIAN_COAST_GU,North
2021-11-27T18:00:00Z,2021,18,0,331.75,331.75,68.581,-65.344,1018.9,35.95,-999.0,yes,yes,no,300234066215540,BD2GI,AOML,CANADIAN_COAST_GU,North
2021-11-27T19:00:02Z,2021,19,0,331.7917,331.7917,68.571,-65.361,1019.1,35.95,-999.0,yes,yes,no,300234066215540,BD2GI,AOML,CANADIAN_COAST_GU,North
2021-11-27T19:59:57Z,2021,20,0,331.8333,331.8333,68.562,-65.379,1019.7,35.95,-999.0,yes,yes,no,300234066215540,BD2GI,AOML,CANADIAN_COAST_GU,North
2021-11-27T21:00:00Z,2021,21,0,331.875,331.875,68.556,-65.396,1018.7,35.95,-999.0,yes,yes,no,300234066215540,BD2GI,AOML,CANADIAN_COAST_GU,North
2021-11-27T22:00:02Z,2021,22,0,331.9167,331.9167,68.549,-65.408,1018.8,35.95,-999.0,yes,yes,no,300234066215540,BD2GI,AOML,CANADIAN_COAST_GU,North
2021-11-27T22:59:57Z,2021,23,0,331.9583,331.9583,68.541,-65.417,1017.7,35.95,-999.0,yes,yes,no,300234066215540,BD2GI,AOML,CANADIAN_COAST_GU,North
2021-11-28T00:00:00Z,2021,0,0,332.0,332.0,68.531,-65.424,1019.0,35.95,-999.0,yes,yes,no,300234066215540,BD2GI,AOML,CANADIAN_COAST_GU,North
2021-11-28T01:00:02Z,2021,1,0,332.0417,332.0417,68.52,-65.428,1017.9,35.95,-999.0,yes,yes,no,300234066215540,BD2GI,AOML,CANADIAN_COAST_GU,North
2021-11-28T01:59:57Z,2021,2,0,332.0833,332.0833,68.507,-65.437,1018.5,35.95,-999.0,yes,yes,no,300234066215540,BD2GI,AOML,CANADIAN_COAST_GU,North
2021-11-28T03:00:00Z,2021,3,0,332.125,332.125,68.495,-65.452,1018.2,35.95,-999.0,yes,yes,no,300234066215540,BD2GI,AOML,CANADIAN_COAST_GU,North
2021-11-28T04:00:02Z,2021,4,0,332.1667,332.1667,68.482,-65.473,1017.9,35.95,-999.0,yes,yes,no,300234066215540,BD2GI,AOML,CANADIAN_COAST_GU,North
2021-11-28T04:59:57Z,2021,5,0,332.2083,332.2083,68.471,-65.502,1017.6,35.95,-999.0,yes,yes,no,300234066215540,BD2GI,AOML,CANADIAN_COAST_GU,North
2021-11-28T06:00:00Z,2021,6,0,332.25,332.25,68.465,-65.538,1017.7,35.95,-999.0,yes,yes,no,300234066215540,BD2GI,AOML,CANADIAN_COAST_GU,North
2021-11-28T07:00:02Z,2021,7,0,332.2917,332.2917,68.462,-65.577,1017.8,35.95,-999.0,yes,yes,no,300234066215540,BD2GI,AOML,CANADIAN_COAST_GU,North
2021-11-28T07:59:57Z,2021,8,0,332.3333,332.3333,68.461,-65.612,1017.8,35.95,-999.0,yes,yes,no,300234066215540,BD2GI,AOML,CANADIAN_COAST_GU,North
2021-11-28T10:00:02Z,2021,10,0,332.4167,332.4167,68.463,-65.652,1017.5,35.95,-999.0,yes,yes,no,300234066215540,BD2GI,AOML,CANADIAN_COAST_GU,North
2021-11-28T10:59:57Z,2021,11,0,332.4583,332.4583,68.462,-65.659,1017.5,35.95,-999.0,yes,yes,no,300234066215540,BD2GI,AOML,CANADIAN_COAST_GU,North
2021-11-28T12:00:00Z,2021,12,0,332.5,332.5,68.458,-65.658,1017.0,35.95,-999.0,yes,yes,no,300234066215540,BD2GI,AOML,CANADIAN_COAST_GU,North
2021-11-28T13:00:02Z,2021,13,0,332.5417,332.5417,68.451,-65.656,1016.9,35.95,-999.0,yes,yes,no,300234066215540,BD2GI,AOML,CANADIAN_COAST_GU,North
2021-11-28T13:59:57Z,2021,14,0,332.5833,332.5833,68.442,-65.654,1016.6,35.95,-999.0,yes,yes,no,300234066215540,BD2GI,AOML,CANADIAN_COAST_GU,North
2021-11-28T15:00:00Z,2021,15,0,332.625,332.625,68.432,-65.654,1015.9,35.95,-999.0,yes,yes,no,300234066215540,BD2GI,AOML,CANADIAN_COAST_GU,North
2021-11-28T16:00:02Z,2021,16,0,332.6667,332.6667,68.421,-65.661,1015.4,35.95,-999.0,yes,yes,no,300234066215540,BD2GI,AOML,CANADIAN_COAST_GU,North
2021-11-28T16:59:57Z,2021,17,0,332.7083,332.7083,68.411,-65.676,1014.6,35.95,-999.0,yes,yes,no,300234066215540,BD2GI,AOML,CANADIAN_COAST_GU,North
2021-11-28T09:00:00Z,2021,9,0,332.375,332.375,68.463,-65.637,1017.8,35.95,-999.0,yes,yes,no,300234066215540,BD2GI,AOML,CANADIAN_COAST_GU,North
2021-11-28T18:00:00Z,2021,18,0,332.75,332.75,68.403,-65.698,1012.9,35.95,-999.0,yes,yes,no,300234066215540,BD2GI,AOML,CANADIAN_COAST_GU,North
2021-11-28T19:00:02Z,2021,19,0,332.7917,332.7917,68.395,-65.726,1012.5,35.95,-999.0,yes,yes,no,300234066215540,BD2GI,AOML,CANADIAN_COAST_GU,North
2021-11-28T19:59:57Z,2021,20,0,332.8333,332.8333,68.389,-65.75,1011.4,35.95,-999.0,yes,yes,no,300234066215540,BD2GI,AOML,CANADIAN_COAST_GU,North
2021-11-28T21:00:00Z,2021,21,0,332.875,332.875,68.385,-65.772,1010.6,35.95,-999.0,yes,yes,no,300234066215540,BD2GI,AOML,CANADIAN_COAST_GU,North
2021-11-28T22:00:02Z,2021,22,0,332.9167,332.9167,68.381,-65.79,1009.4,35.95,-999.0,yes,yes,no,300234066215540,BD2GI,AOML,CANADIAN_COAST_GU,North
2021-11-28T22:59:57Z,2021,23,0,332.9583,332.9583,68.375,-65.804,1008.3,35.95,-999.0,yes,yes,no,300234066215540,BD2GI,AOML,CANADIAN_COAST_GU,North
2021-11-29T00:00:00Z,2021,0,0,333.0,333.0,68.368,-65.814,1007.1,35.95,-999.0,yes,yes,no,300234066215540,BD2GI,AOML,CANADIAN_COAST_GU,North
2021-11-29T01:00:02Z,2021,1,0,333.0417,333.0417,68.359,-65.821,1006.0,35.95,-999.0,yes,yes,no,300234066215540,BD2GI,AOML,CANADIAN_COAST_GU,North
2021-11-29T01:59:57Z,2021,2,0,333.0833,333.0833,68.349,-65.827,1004.4,35.95,-999.0,yes,yes,no,300234066215540,BD2GI,AOML,CANADIAN_COAST_GU,North
2021-11-29T03:00:00Z,2021,3,0,333.125,333.125,68.341,-65.833,1002.9,35.95,-999.0,yes,yes,no,300234066215540,BD2GI,AOML,CANADIAN_COAST_GU,North
2021-11-29T04:00:02Z,2021,4,0,333.1667,333.1667,68.332,-65.841,1002.1,35.95,-999.0,yes,yes,no,300234066215540,BD2GI,AOML,CANADIAN_COAST_GU,North
2021-11-29T04:59:57Z,2021,5,0,333.2083,333.2083,68.326,-65.853,1000.8,35.95,-999.0,yes,yes,no,300234066215540,BD2GI,AOML,CANADIAN_COAST_GU,North
2021-11-29T06:00:00Z,2021,6,0,333.25,333.25,68.32,-65.861,1001.0,35.95,-999.0,yes,yes,no,300234066215540,BD2GI,AOML,CANADIAN_COAST_GU,North
2021-11-29T07:00:02Z,2021,7,0,333.2917,333.2917,68.316,-65.867,1000.3,35.95,-999.0,yes,yes,no,300234066215540,BD2GI,AOML,CANADIAN_COAST_GU,North
2021-11-29T07:59:57Z,2021,8,0,333.3333,333.3333,68.312,-65.87,995.9,35.95,-999.0,yes,yes,no,300234066215540,BD2GI,AOML,CANADIAN_COAST_GU,North
2021-11-29T09:00:00Z,2021,9,0,333.375,333.375,68.31,-65.871,995.7,35.95,-999.0,yes,yes,no,300234066215540,BD2GI,AOML,CANADIAN_COAST_GU,North
2021-11-29T10:00:02Z,2021,10,0,333.4167,333.4167,68.306,-65.872,996.3,35.95,-999.0,yes,yes,no,300234066215540,BD2GI,AOML,CANADIAN_COAST_GU,North
2021-11-29T10:59:57Z,2021,11,0,333.4583,333.4583,68.301,-65.871,994.0,35.95,-999.0,yes,yes,no,300234066215540,BD2GI,AOML,CANADIAN_COAST_GU,North
2021-11-29T12:00:00Z,2021,12,0,333.5,333.5,68.294,-65.869,992.2,35.95,-999.0,yes,yes,no,300234066215540,BD2GI,AOML,CANADIAN_COAST_GU,North
2021-11-29T13:00:02Z,2021,13,0,333.5417,333.5417,68.288,-65.87,992.0,35.95,-999.0,yes,yes,no,300234066215540,BD2GI,AOML,CANADIAN_COAST_GU,North
2021-11-29T13:59:57Z,2021,14,0,333.5833,333.5833,68.282,-65.872,991.6,35.95,-999.0,yes,yes,no,300234066215540,BD2GI,AOML,CANADIAN_COAST_GU,North
2021-11-29T15:00:00Z,2021,15,0,333.625,333.625,68.279,-65.874,991.7,35.95,-999.0,yes,yes,no,300234066215540,BD2GI,AOML,CANADIAN_COAST_GU,North
2021-11-29T16:00:02Z,2021,16,0,333.6667,333.6667,68.277,-65.875,992.4,35.95,-999.0,yes,yes,no,300234066215540,BD2GI,AOML,CANADIAN_COAST_GU,North
2021-11-29T16:59:57Z,2021,17,0,333.7083,333.7083,68.274,-65.877,992.9,35.95,-999.0,yes,yes,no,300234066215540,BD2GI,AOML,CANADIAN_COAST_GU,North
2021-11-29T18:00:00Z,2021,18,0,333.75,333.75,68.273,-65.88,992.5,35.95,-999.0,yes,yes,no,300234066215540,BD2GI,AOML,CANADIAN_COAST_GU,North
2021-11-29T19:00:02Z,2021,19,0,333.7917,333.7917,68.271,-65.884,992.1,35.95,-999.0,yes,yes,no,300234066215540,BD2GI,AOML,CANADIAN_COAST_GU,North
2021-11-29T19:59:57Z,2021,20,0,333.8333,333.8333,68.27,-65.887,991.1,35.95,-999.0,yes,yes,no,300234066215540,BD2GI,AOML,CANADIAN_COAST_GU,North
2021-11-29T21:00:00Z,2021,21,0,333.875,333.875,68.269,-65.889,990.4,35.95,-999.0,yes,yes,no,300234066215540,BD2GI,AOML,CANADIAN_COAST_GU,North
2021-11-29T22:00:02Z,2021,22,0,333.9167,333.9167,68.269,-65.889,990.2,35.95,-999.0,yes,yes,no,300234066215540,BD2GI,AOML,CANADIAN_COAST_GU,North
2021-11-29T22:59:57Z,2021,23,0,333.9583,333.9583,68.269,-65.889,988.5,35.95,-999.0,yes,yes,no,300234066215540,BD2GI,AOML,CANADIAN_COAST_GU,North
2021-11-30T00:00:00Z,2021,0,0,334.0,334.0,68.269,-65.887,988.3,35.95,-999.0,yes,yes,no,300234066215540,BD2GI,AOML,CANADIAN_COAST_GU,North
2021-11-30T01:00:02Z,2021,1,0,334.0417,334.0417,68.269,-65.885,988.3,35.95,-999.0,yes,yes,no,300234066215540,BD2GI,AOML,CANADIAN_COAST_GU,North
2021-11-30T01:59:57Z,2021,2,0,334.0833,334.0833,68.268,-65.883,988.9,35.95,-999.0,yes,yes,no,300234066215540,BD2GI,AOML,CANADIAN_COAST_GU,North
2021-11-30T03:00:00Z,2021,3,0,334.125,334.125,68.267,-65.88,990.2,35.95,-999.0,yes,yes,no,300234066215540,BD2GI,AOML,CANADIAN_COAST_GU,North
2021-11-30T04:00:02Z,2021,4,0,334.1667,334.1667,68.265,-65.879,990.6,35.95,-999.0,yes,yes,no,300234066215540,BD2GI,AOML,CANADIAN_COAST_GU,North
2021-11-30T04:59:57Z,2021,5,0,334.2083,334.2083,68.262,-65.879,995.6,35.95,-999.0,yes,yes,no,300234066215540,BD2GI,AOML,CANADIAN_COAST_GU,North
2021-11-30T06:00:00Z,2021,6,0,334.25,334.25,68.26,-65.881,996.2,35.95,-999.0,yes,yes,no,300234066215540,BD2GI,AOML,CANADIAN_COAST_GU,North
2021-11-30T07:00:02Z,2021,7,0,334.2917,334.2917,68.259,-65.883,992.6,35.95,-999.0,yes,yes,no,300234066215540,BD2GI,AOML,CANADIAN_COAST_GU,North
2021-11-30T07:59:57Z,2021,8,0,334.3333,334.3333,68.258,-65.885,993.8,35.95,-999.0,yes,yes,no,300234066215540,BD2GI,AOML,CANADIAN_COAST_GU,North
2021-11-30T09:00:00Z,2021,9,0,334.375,334.375,68.258,-65.886,989.7,35.95,-999.0,yes,yes,no,300234066215540,BD2GI,AOML,CANADIAN_COAST_GU,North
2021-11-30T10:00:02Z,2021,10,0,334.4167,334.4167,68.258,-65.886,986.3,35.95,-999.0,yes,yes,no,300234066215540,BD2GI,AOML,CANADIAN_COAST_GU,North
2021-11-30T10:59:57Z,2021,11,0,334.4583,334.4583,68.258,-65.886,983.0,35.95,-999.0,yes,yes,no,300234066215540,BD2GI,AOML,CANADIAN_COAST_GU,North
2021-11-30T12:00:00Z,2021,12,0,334.5,334.5,68.258,-65.886,979.2,35.95,-999.0,yes,yes,no,300234066215540,BD2GI,AOML,CANADIAN_COAST_GU,North
2021-11-30T13:00:02Z,2021,13,0,334.5417,334.5417,68.258,-65.885,976.7,35.95,-999.0,yes,yes,no,300234066215540,BD2GI,AOML,CANADIAN_COAST_GU,North
2021-11-30T13:59:57Z,2021,14,0,334.5833,334.5833,68.257,-65.883,974.8,35.95,-999.0,yes,yes,no,300234066215540,BD2GI,AOML,CANADIAN_COAST_GU,North
2021-11-30T15:00:00Z,2021,15,0,334.625,334.625,68.257,-65.88,972.2,35.95,-999.0,yes,yes,no,300234066215540,BD2GI,AOML,CANADIAN_COAST_GU,North
2021-11-30T16:00:02Z,2021,16,0,334.6667,334.6667,68.255,-65.877,970.2,35.95,-999.0,yes,yes,no,300234066215540,BD2GI,AOML,CANADIAN_COAST_GU,North
2021-11-30T16:59:57Z,2021,17,0,334.7083,334.7083,68.253,-65.875,969.3,35.95,-999.0,yes,yes,no,300234066215540,BD2GI,AOML,CANADIAN_COAST_GU,North
2021-11-30T18:00:00Z,2021,18,0,334.75,334.75,68.251,-65.874,969.4,35.95,-999.0,yes,yes,no,300234066215540,BD2GI,AOML,CANADIAN_COAST_GU,North
2021-11-30T19:00:02Z,2021,19,0,334.7917,334.7917,68.249,-65.876,969.3,35.95,-999.0,yes,yes,no,300234066215540,BD2GI,AOML,CANADIAN_COAST_GU,North